map of TFF home
TFF - Airport
Location
City:  Tefé, Amazonas, Brazil
ICAO:SBTF
IATA:TFF

Details
Type:Airport (Aerodrome, Airfield)
Latitude:3°22'59"S (-3.382943)
Longitude:64°43'27"W (-64.724055)
Datum:WGS 1984
Elevation:184 ft (56 m)
Variation:13.02°W (WMM2015v2 magnetic declination)
-0.15° annual change
Runways:1
Longest:7218 × 148 ft (2200 × 45 m), paved

Time
Time Zone:UTC-4
Local Time:

Weather
METAR:SBTF 041400Z 16005KT 9999 SCT015 BKN100 28/25 Q1013
TAF:SBTF 031600Z 0318/0406 19009KT 8000 SCT020 FEW025TCU TX30/0318Z T N23/0405Z
TEMPO 0320/0322 TS SCT008 SCT020 FEW030CB
BECMG 0320/0422 09005KT
BECMG 0400/0402 FEW012
RMK PDU

Related Locations
Nearby:
Farthest:WBGO: 12448 mi / 20033 km
Lio Matu, 13, MY

Find:

   beyond  
but within

Other Information
Maps:
NOTAMs:
Links:
Sources:

  
  • flag of Brazil
  • flag of Amazonas
  

Sectional Chart

Flight Planning
at skyvector.com

Satellite Image

Google Maps Satellite view

 

Copyright © 2004-2019 Karl L. Swartz. All rights reserved.
The Great Circle Mapper name and logo are trademarks of the Great Circle Mapper.
All other trademarks mentioned herein belong to their respective owners.
Please see credits for attibutions and further copyright information.

  Follow gcmap on Facebook Follow gcmap on Twitter GCmap on LinkedIn

hCard Microformat

Geo Microformat